Wetbulb
55.40 55.42 55.50 55.30 55.41 55.38 55.37 55.33 55.46 55.75 56.16 56.03 56.27 56.38 56.56 56.42 55.64 56.48 54.34 55.05 56.48 59.72 58.68 56.79 56.75 55.11 54.25 51.85 54.41 54.74 47.46 45.70 47.05 47.45 49.09 53.39 52.31 55.24 56.65 54.94 58.98 60.70 67.76 70.60 74.20
55.09 55.27 55.50 55.50 55.27 55.12 55.35 55.57 55.73 55.77 55.89 56.26 56.35 56.25 56.21 56.24 53.59 54.40 57.65 58.38 59.42 60.25 57.70 56.90 52.67 53.74 50.51 50.15 50.54 49.83 46.38 46.72 51.11 51.59 50.74 52.78 53.01 53.65 53.41 53.46 54.83 57.30 70.56 71.64 72.35
55.03 55.24 54.98 55.46 55.19 55.11 55.13 55.16 55.57 55.87 56.17 56.22 56.30 56.30 56.07 55.72 52.50 55.57 58.89 58.79 59.70 59.92 58.71 57.65 54.53 52.22 49.77 50.39 49.48 48.54 46.15 49.59 50.40 51.78 52.79 52.35 52.59 54.89 52.81 51.18 53.88 54.89 67.86 69.94 71.25
54.91 55.24 55.32 54.83 55.06 54.93 54.88 55.09 55.45 55.76 55.91 55.71 55.85 55.96 55.97 54.68 46.84 57.78 59.42 58.87 60.55 59.68 58.56 55.88 53.79 48.87 47.13 46.64 49.60 46.17 48.90 49.95 50.61 51.68 51.49 51.20 53.62 52.83 53.38 53.05 56.20 57.16 68.07 69.06 69.40
54.68 54.88 54.81 55.07 54.86 54.82 54.91 54.85 55.39 55.41 55.39 55.72 56.05 56.14 54.89 52.63 52.64 57.81 59.04 59.93 58.33 57.55 55.85 54.56 52.13 50.68 47.12 47.56 48.42 46.68 47.93 49.65 51.18 51.52 51.78 52.35 51.61 52.08 51.90 54.40 55.76 57.01 59.19 69.00 69.99
54.87 54.49 54.47 54.35 54.66 54.81 54.53 55.23 55.41 55.07 55.28 56.27 56.39 55.81 53.98 50.29 56.27 56.98 56.37 56.13 55.88 55.88 55.32 55.63 52.94 52.72 49.24 48.34 47.02 48.18 48.14 48.13 49.04 50.03 51.63 50.52 51.09 51.83 52.33 54.69 54.60 57.56 57.80 66.33 69.41
54.70 54.46 53.59 53.87 54.19 54.45 54.50 54.80 54.93 54.86 56.17 56.01 55.95 55.46 54.59 50.24 57.02 58.02 57.30 56.31 55.96 54.42 52.11 55.54 55.67 51.48 51.16 47.45 50.04 48.41 44.71 46.41 47.69 48.55 49.61 51.99 48.38 48.76 53.01 54.25 53.74 56.34 57.29 60.19 67.67
54.94 54.21 53.80 53.60 54.03 54.23 54.46 54.55 54.64 55.40 56.51 55.87 55.74 56.09 52.02 56.62 57.97 56.51 57.10 55.60 56.92 55.78 54.04 55.03 55.99 52.20 50.05 51.09 49.10 45.94 45.80 40.66 45.64 47.94 48.57 49.74 44.38 50.00 52.82 53.11 52.62 53.99 56.19 56.61 64.65
55.12 53.98 53.92 53.75 53.93 54.48 54.71 54.42 55.04 56.12 56.28 55.76 55.59 55.55 50.86 55.95 54.49 56.73 56.70 53.42 53.86 54.43 54.33 54.64 53.33 49.24 49.70 45.06 42.96 44.53 39.48 41.56 42.75 46.95 46.86 47.12 45.67 50.59 53.01 53.34 53.31 54.60 54.60 56.26 59.48
55.04 53.95 53.58 53.73 54.14 54.43 54.38 54.14 56.53 55.97 56.47 57.95 57.33 52.40 55.06 51.26 55.55 55.78 56.81 55.06 52.16 51.92 51.04 50.76 49.40 45.54 45.41 42.82 36.06 39.61 40.13 42.68 41.85 45.43 45.55 45.01 45.64 50.14 52.22 53.19 53.26 54.37 54.80 56.29 57.61
54.88 53.79 53.56 54.08 54.24 54.12 54.19 57.74 53.12 53.36 55.25 53.04 51.64 51.50 53.07 55.83 57.64 55.10 55.51 53.49 52.48 49.94 44.82 48.92 43.64 40.31 42.46 42.93 42.74 43.99 42.07 41.30 45.41 47.90 45.09 44.57 45.27 48.16 52.09 52.98 53.31 53.51 54.87 56.10 57.47
54.77 53.83 53.77 54.02 54.10 54.14 54.47 56.06 53.61 55.10 49.17 55.13 53.29 53.72 54.89 55.31 51.23 53.47 55.74 49.55 48.79 44.40 47.00 44.56 40.62 45.18 45.64 43.80 42.34 43.12 40.92 40.26 44.79 47.13 45.95 45.17 44.49 47.84 51.18 52.84 54.30 53.76 54.70 55.84 57.44
53.71 53.21 53.28 53.85 54.14 54.88 57.81 55.14 58.61 58.52 49.98 52.78 53.82 52.69 52.52 54.26 50.71 51.47 53.68 51.08 47.34 44.63 44.45 41.55 43.74 46.30 44.85 42.26 40.40 40.76 40.22 40.99 41.54 44.46 46.04 44.92 42.91 46.07 49.05 52.98 54.19 55.12 55.23 56.27 57.01
53.38 52.64 52.97 53.37 51.86 58.98 54.30 57.75 59.10 58.45 45.87 48.35 50.02 52.36 53.44 53.57 49.24 54.98 54.65 50.92 47.47 43.57 44.77 43.80 46.22 44.53 43.30 41.74 41.24 36.64 43.27 43.45 42.46 40.70 35.51 45.25 35.00 44.27 47.58 49.67 52.42 54.13 55.28 55.44 56.71
53.03 52.76 52.71 52.30 57.34 55.80 55.68 59.12 59.20 57.09 36.72 46.57 49.15 55.36 53.15 49.86 50.66 50.46 55.09 50.70 44.59 43.84 44.45 41.50 43.46 43.32 41.91 42.75 43.35 39.21 43.29 42.89 42.53 40.45 39.59 39.38 37.89 42.31 47.17 46.81 50.55 53.28 55.08 55.78 57.28
52.78 52.59 52.48 57.09 57.88 58.10 57.63 59.84 58.29 45.59 34.50 44.08 48.06 47.02 47.24 49.58 49.48 51.18 50.39 52.59 51.25 45.57 45.54 43.80 47.79 45.87 45.13 44.88 45.16 45.20 41.64 41.88 41.93 39.65 33.19 38.76 38.58 40.09 44.76 47.25 49.94 53.71 54.91 55.90 56.99
52.63 52.10 52.08 58.31 53.73 57.24 58.06 56.90 45.47 38.48 46.58 42.52 43.18 46.32 46.42 45.64 46.07 47.24 45.63 44.66 40.75 37.48 38.26 42.84 43.29 46.42 46.78 42.92 44.95 43.28 38.73 31.69 31.28 31.50 31.26 41.01 38.82 42.42 47.73 50.57 51.44 53.02 54.67 56.03 57.63
51.09 50.32 55.42 59.33 58.60 57.94 57.43 50.29 39.79 43.45 42.74 45.98 44.82 46.01 43.17 45.52 45.70 45.86 44.06 42.11 46.13 43.02 37.30 35.92 33.99 42.77 46.13 43.34 40.61 40.63 39.30 33.10 26.66 29.62 33.65 41.24 37.19 42.94 50.73 52.84 53.31 54.91 56.29 56.27 56.77
49.94 60.00 60.29 58.06 58.68 58.28 53.40 43.08 40.78 42.79 44.76 43.03 44.68 41.97 42.16 44.29 43.90 44.02 43.10 41.82 44.19 44.84 38.09 35.85 36.26 45.48 46.48 46.09 44.54 40.33 37.47 41.75 34.09 36.23 33.65 38.57 42.61 46.53 49.81 51.31 52.81 53.91 55.93 55.94 56.48
52.41 58.24 58.36 57.66 59.80 56.72 50.10 42.47 44.49 47.12 46.05 45.64 40.13 42.19 38.59 41.14 40.75 41.15 41.76 44.83 43.01 45.65 45.73 41.51 35.02 43.15 44.41 45.90 45.36 42.58 42.32 36.56 36.56 28.81 28.46 36.66 39.34 40.41 45.64 48.95 52.19 53.01 54.94 56.15 56.97
54.33 54.18 57.37 59.15 59.04 53.07 45.42 45.12 46.56 47.88 48.31 44.42 41.81 41.18 41.91 40.50 41.07 40.42 40.78 43.64 43.94 43.62 44.58 42.34 39.05 38.75 43.06 40.95 38.64 40.88 38.86 40.37 40.00 37.36 31.54 30.23 37.18 49.01 48.95 50.36 52.05 53.58 56.01 56.34 56.99
54.76 49.89 58.05 57.89 49.75 50.16 45.52 47.26 47.31 46.97 48.73 46.64 45.55 44.13 42.41 42.22 40.99 40.93 39.58 41.01 45.52 44.41 39.39 42.96 40.11 35.40 38.66 44.56 45.36 43.70 41.19 40.69 35.63 34.20 37.61 36.59 36.41 47.24 50.75 51.25 53.66 53.57 56.65 56.77 58.96
51.38 51.84 58.33 55.78 45.16 45.45 48.05 47.93 49.31 47.50 47.21 46.17 43.68 45.57 45.43 42.92 39.68 40.65 41.61 45.81 45.39 42.79 40.00 43.46 38.28 33.41 36.52 41.47 44.03 41.67 42.49 42.95 42.15 42.26 35.99 33.67 37.26 48.74 53.18 53.30 53.41 54.43 56.63 56.64 61.23
52.07 47.02 51.43 52.99 52.06 48.10 46.05 46.14 45.75 50.08 48.17 47.95 46.26 46.71 45.00 42.84 44.85 41.71 42.55 43.99 44.56 43.61 45.75 43.72 39.30 37.48 33.04 36.71 40.19 38.68 40.52 41.83 40.90 36.41 37.13 38.03 39.85 44.50 47.63 50.83 51.67 53.79 57.01 58.40 65.64
53.11 48.96 50.38 44.16 46.87 48.18 48.31 46.59 45.02 44.44 48.59 49.14 45.96 44.99 43.43 40.13 42.76 41.25 43.78 43.99 43.22 44.39 43.79 41.76 35.66 37.99 40.04 41.32 41.35 39.99 39.84 40.48 38.85 40.36 36.95 40.51 40.26 43.89 47.58 49.56 51.12 52.90 53.65 58.71 62.56
49.48 47.39 48.85 47.20 49.55 48.36 46.98 45.11 43.45 44.72 45.84 45.33 44.18 44.84 44.77 42.69 43.63 41.60 43.80 43.18 40.69 43.60 42.24 42.07 35.65 38.06 36.19 39.67 40.38 38.50 40.85 41.62 40.37 40.38 40.90 41.97 41.71 48.19 49.71 50.54 50.89 51.84 52.55 64.03 62.09
54.18 53.85 49.31 46.32 47.77 45.70 45.45 44.99 44.31 45.85 47.26 49.29 47.95 45.04 44.25 46.16 48.23 49.30 50.20 49.79 47.95 44.14 40.37 39.52 36.69 35.45 31.76 37.38 37.26 36.16 39.44 40.32 41.65 43.22 42.64 39.78 44.14 47.57 47.21 48.22 50.21 51.33 52.92 59.55 63.69
MSLP
1019.59 1019.22 1018.83 1018.43 1018.07 1017.77 1017.50 1017.20 1016.86 1016.46 1016.09 1015.77 1015.38 1015.03 1014.63 1014.31 1013.75 1012.18 1011.38 1011.47 1011.32 1011.20 1010.88 1009.77 1008.17 1007.35 1007.06 1006.59 1005.73 1005.29 1004.23 1002.35 1001.11 999.67 998.17 996.71 995.30 994.57 994.61 994.36 994.43 994.49 995.26 996.14 997.89
1019.61 1019.17 1018.79 1018.43 1018.07 1017.77 1017.42 1017.10 1016.73 1016.41 1016.04 1015.65 1015.33 1014.99 1014.77 1014.45 1013.52 1011.61 1011.44 1011.26 1011.09 1011.18 1010.56 1008.65 1007.31 1006.48 1006.25 1005.81 1005.57 1004.73 1003.45 1002.43 1001.60 1000.17 998.59 997.17 995.87 994.62 994.44 994.69 995.26 995.23 996.15 997.33 998.41
1019.61 1019.09 1018.71 1018.33 1017.98 1017.64 1017.36 1017.02 1016.69 1016.27 1015.91 1015.53 1015.15 1014.83 1014.68 1014.40 1012.47 1010.65 1011.23 1011.12 1011.14 1011.21 1010.39 1009.01 1007.91 1007.12 1005.95 1005.22 1004.68 1004.36 1003.14 1002.48 1001.46 1000.75 999.62 998.00 996.57 995.33 994.56 994.81 995.70 995.43 996.53 997.79 998.63
1019.50 1019.00 1018.53 1018.17 1017.81 1017.47 1017.21 1016.89 1016.46 1016.07 1015.72 1015.37 1015.03 1014.72 1014.54 1013.89 1010.94 1010.68 1011.05 1010.96 1010.86 1010.67 1009.70 1008.27 1007.43 1006.80 1005.97 1004.98 1004.09 1003.56 1002.99 1002.53 1002.04 1001.19 1000.26 998.94 997.81 996.27 995.10 995.00 995.50 995.33 996.41 997.23 998.24
1019.43 1018.91 1018.39 1017.95 1017.60 1017.33 1016.98 1016.65 1016.25 1015.83 1015.50 1015.23 1014.89 1014.68 1014.15 1012.11 1009.70 1010.39 1010.73 1010.64 1010.39 1009.15 1008.48 1007.71 1007.11 1006.44 1005.54 1004.79 1003.95 1003.06 1002.65 1002.44 1001.97 1001.63 1000.79 1000.09 998.78 997.37 996.15 995.27 995.71 995.39 995.42 996.78 998.09
1019.17 1018.72 1018.22 1017.76 1017.36 1017.10 1016.75 1016.41 1016.02 1015.65 1015.32 1014.93 1014.64 1014.62 1013.38 1010.06 1009.43 1009.62 1009.75 1009.54 1009.17 1008.68 1008.12 1007.45 1007.16 1006.58 1006.06 1005.22 1004.35 1003.44 1002.67 1002.27 1002.16 1001.65 1001.19 1000.55 999.53 998.21 997.03 996.37 995.91 995.65 995.61 996.31 997.65
1018.99 1018.49 1018.03 1017.53 1017.14 1016.76 1016.48 1016.12 1015.79 1015.44 1015.05 1014.67 1014.52 1014.07 1011.85 1009.88 1009.41 1009.21 1009.10 1008.75 1008.81 1008.68 1008.31 1007.69 1007.33 1007.31 1006.59 1005.50 1004.63 1004.14 1003.49 1002.93 1002.19 1001.65 1001.27 1001.07 1000.13 998.64 997.73 997.13 996.28 995.89 996.52 996.46 996.59
1018.81 1018.28 1017.75 1017.21 1016.79 1016.38 1016.10 1015.82 1015.58 1015.21 1014.79 1014.57 1014.47 1013.60 1010.21 1009.29 1009.25 1008.97 1008.59 1008.28 1008.08 1008.53 1008.50 1008.17 1007.85 1007.76 1007.23 1006.45 1005.25 1004.55 1003.99 1002.86 1002.11 1001.79 1001.70 1001.65 999.89 999.43 998.55 998.06 996.87 996.29 996.65 996.91 997.36
1018.52 1017.98 1017.46 1016.91 1016.43 1015.95 1015.72 1015.57 1015.27 1014.96 1014.68 1014.49 1013.94 1012.42 1009.11 1009.50 1008.94 1008.39 1008.51 1008.43 1008.27 1008.31 1008.39 1008.38 1008.31 1007.95 1007.22 1006.48 1005.60 1004.65 1003.50 1002.56 1001.67 1001.29 1001.29 1001.15 999.95 999.61 998.99 998.48 997.45 996.75 996.59 996.94 996.96
1018.29 1017.69 1017.13 1016.57 1016.03 1015.63 1015.41 1015.19 1014.59 1014.71 1014.20 1013.35 1012.54 1011.24 1009.16 1008.50 1008.31 1008.47 1008.33 1008.65 1008.17 1007.78 1007.92 1008.14 1007.80 1007.36 1006.76 1006.38 1005.49 1004.27 1004.01 1002.35 1001.01 1000.52 1000.65 1000.11 999.51 999.49 998.67 998.02 997.61 996.97 996.60 997.00 997.47
1018.09 1017.45 1016.83 1016.25 1015.72 1015.50 1014.97 1014.07 1013.85 1013.59 1012.71 1010.63 1009.52 1008.93 1008.13 1008.53 1008.06 1007.75 1008.08 1008.16 1007.89 1007.57 1006.92 1006.57 1006.89 1006.12 1006.22 1007.83 1007.42 1004.89 1005.44 1003.65 1001.51 1000.20 999.58 999.14 999.17 998.96 998.25 997.38 997.00 996.43 996.17 996.73 997.15
1017.89 1017.22 1016.60 1015.97 1015.53 1015.21 1015.09 1012.33 1011.95 1011.65 1010.41 1008.69 1008.86 1008.46 1008.13 1008.42 1007.76 1007.58 1007.96 1007.98 1007.18 1006.56 1005.84 1005.85 1005.86 1005.93 1006.11 1007.23 1007.55 1005.71 1004.71 1003.95 1002.03 1000.40 1000.08 998.86 998.23 998.28 997.47 996.66 996.06 995.95 995.73 996.28 996.83
1017.72 1016.99 1016.37 1015.77 1015.19 1014.65 1012.41 1011.25 1010.87 1010.95 1010.12 1007.69 1007.83 1007.73 1007.50 1007.90 1007.57 1007.28 1007.55 1007.30 1007.02 1006.49 1005.93 1005.29 1004.84 1005.33 1005.64 1005.68 1005.62 1005.09 1004.07 1003.03 1001.67 1001.56 1001.04 999.98 997.54 996.91 996.69 996.06 995.30 995.16 995.58 996.05 996.37
1017.57 1016.72 1016.06 1015.46 1015.22 1011.59 1010.89 1010.93 1010.66 1011.27 1009.97 1006.90 1006.97 1006.74 1006.80 1006.88 1007.39 1007.41 1007.34 1007.42 1007.01 1006.62 1005.95 1005.18 1004.59 1004.68 1005.02 1004.94 1004.96 1004.57 1004.15 1003.05 1002.27 1002.52 1002.10 1000.02 998.87 996.57 996.15 995.62 995.09 994.51 994.57 995.05 995.90
1017.43 1016.42 1015.69 1015.66 1014.10 1011.32 1011.02 1010.76 1011.29 1011.37 1009.05 1006.38 1005.93 1006.08 1005.95 1006.35 1007.46 1007.26 1007.55 1007.49 1007.23 1006.96 1006.74 1005.36 1005.11 1004.42 1004.15 1004.10 1004.10 1004.37 1004.71 1003.68 1002.78 1001.85 1001.67 1000.67 998.82 996.01 995.58 994.93 994.47 994.43 994.24 994.64 995.29
1017.09 1016.28 1015.52 1013.39 1013.45 1011.19 1010.65 1010.89 1011.23 1010.28 1007.67 1006.39 1006.15 1006.24 1006.23 1006.33 1006.73 1007.06 1007.40 1008.03 1007.82 1007.53 1006.93 1006.07 1005.53 1004.88 1004.20 1004.24 1004.28 1004.29 1004.57 1003.95 1003.15 1002.44 1001.11 998.99 998.68 995.19 993.95 993.98 993.96 993.98 993.88 994.01 994.59
1016.52 1015.89 1015.42 1013.35 1011.64 1010.87 1010.85 1010.41 1009.85 1008.61 1008.17 1007.35 1007.33 1007.15 1006.47 1006.94 1007.10 1007.18 1007.38 1007.49 1008.51 1008.18 1006.93 1005.55 1004.80 1003.99 1004.04 1003.86 1004.09 1004.00 1004.48 1003.92 1002.85 1002.03 1000.44 998.25 996.50 993.65 991.98 992.63 992.75 993.02 993.34 993.59 994.24
1015.86 1015.22 1013.38 1012.23 1011.02 1011.03 1010.87 1010.20 1009.10 1008.51 1008.83 1008.90 1008.53 1007.57 1007.03 1007.73 1008.05 1008.19 1007.72 1007.59 1007.26 1008.08 1008.33 1006.63 1004.64 1004.44 1003.51 1003.53 1003.39 1003.93 1003.76 1003.68 1003.41 1001.82 999.49 996.93 994.65 991.79 990.67 990.73 991.43 992.25 992.91 993.67 993.85
1015.30 1012.63 1012.19 1011.29 1010.83 1010.96 1010.55 1009.44 1009.23 1009.33 1009.47 1009.20 1008.73 1008.01 1007.81 1007.99 1008.24 1008.23 1008.34 1008.29 1008.35 1008.94 1008.58 1006.83 1005.68 1004.54 1003.35 1003.17 1003.50 1003.42 1003.94 1004.27 1004.60 1002.73 1000.48 996.37 993.55 991.93 990.75 990.41 990.45 991.23 992.46 992.98 993.53
1015.67 1012.50 1010.96 1010.89 1010.65 1010.97 1010.29 1009.61 1009.23 1009.42 1009.80 1009.87 1009.18 1009.13 1008.60 1008.24 1008.73 1008.91 1009.08 1008.95 1009.47 1009.64 1009.86 1008.07 1006.54 1004.69 1004.04 1003.63 1002.99 1003.01 1005.23 1003.83 1003.45 1001.26 998.78 995.08 992.44 990.98 990.49 989.99 989.48 990.37 991.30 992.11 993.22
1015.29 1011.60 1010.57 1010.17 1010.32 1009.94 1009.52 1009.49 1009.53 1009.93 1009.98 1009.94 1009.45 1009.25 1008.94 1008.72 1009.23 1009.37 1009.73 1010.02 1010.67 1010.45 1010.75 1009.96 1008.34 1005.77 1005.09 1003.81 1002.41 1002.70 1003.20 1002.90 1002.25 1001.03 998.91 996.06 992.70 990.93 990.42 989.87 989.47 989.80 990.61 991.85 992.74
1015.15 1011.15 1010.17 1010.25 1009.41 1010.12 1010.11 1010.06 1009.74 1009.36 1009.44 1009.47 1009.48 1009.15 1009.07 1009.17 1009.33 1009.89 1010.39 1011.15 1011.13 1011.20 1010.98 1010.13 1008.57 1006.36 1004.61 1003.64 1002.75 1002.41 1002.39 1002.07 1001.60 999.93 998.40 997.04 994.13 992.98 991.69 990.58 990.20 989.98 990.39 991.68 992.62
1016.14 1011.88 1010.55 1010.44 1010.37 1010.69 1010.73 1010.43 1009.47 1009.25 1009.08 1009.14 1009.38 1009.31 1009.28 1009.23 1009.12 1009.99 1010.35 1010.54 1010.97 1011.47 1011.43 1010.32 1008.81 1006.93 1004.55 1003.51 1003.51 1002.79 1002.07 1002.14 1001.53 1000.84 998.92 997.37 994.49 992.78 992.35 991.11 991.10 990.96 990.79 991.90 992.73
1016.75 1012.81 1011.70 1011.40 1011.43 1011.65 1011.18 1010.24 1009.79 1008.93 1009.25 1009.41 1009.15 1008.84 1008.41 1008.57 1008.76 1008.94 1009.30 1010.03 1010.73 1011.03 1011.46 1011.51 1009.79 1007.69 1005.92 1004.77 1005.05 1003.50 1002.67 1002.03 1001.70 1001.11 999.40 996.66 995.48 994.85 993.97 994.18 993.99 993.46 992.65 992.05 993.98
1017.01 1015.07 1014.51 1013.12 1012.53 1012.19 1011.36 1010.62 1009.72 1009.50 1009.48 1009.18 1008.53 1008.43 1008.31 1007.95 1007.90 1008.51 1008.52 1009.20 1010.14 1010.52 1010.93 1011.06 1009.73 1008.67 1006.84 1005.56 1004.75 1004.65 1004.11 1002.65 1002.09 1001.07 1000.10 996.22 995.91 995.62 995.73 995.67 995.78 995.89 995.18 994.91 996.21
1017.95 1017.25 1016.01 1014.87 1013.46 1012.17 1011.26 1010.77 1010.27 1009.79 1009.41 1008.67 1008.47 1008.09 1007.93 1007.35 1007.18 1006.91 1007.73 1008.46 1009.27 1009.37 1010.13 1010.62 1009.83 1008.79 1007.25 1006.23 1005.04 1004.09 1003.61 1003.27 1002.37 1001.88 999.97 997.11 996.03 996.75 996.43 996.56 996.60 996.99 997.33 994.52 995.76
1018.86 1018.33 1017.01 1014.81 1013.27 1012.59 1011.95 1011.56 1010.69 1010.09 1009.37 1008.71 1007.79 1007.33 1006.78 1006.43 1006.59 1006.35 1006.44 1006.87 1007.76 1008.48 1009.13 1009.50 1009.27 1008.45 1006.51 1006.30 1005.89 1003.85 1002.36 1002.25 1001.51 1000.35 998.82 997.21 995.81 996.84 996.99 997.49 997.67 997.93 998.40 996.81 996.11
Wind_Speed
15 15 14 14 15 15 14 14 15 15 15 16 16 17 18 17 19 19 14 5 5 8 11 15 14 11 10 15 17 19 16 18 25 26 21 22 24 22 22 17 15 17 22 19 23
15 15 15 14 14 15 14 14 14 14 15 15 16 15 16 16 17 16 4 1 6 8 10 13 12 7 9 12 15 18 16 25 23 23 24 23 25 26 18 14 19 22 21 19 19
16 16 15 15 15 15 15 15 15 15 15 16 16 16 14 15 12 7 4 2 5 9 14 15 12 13 14 14 16 19 21 22 21 24 27 27 25 26 18 18 21 22 21 19 17
16 16 16 15 15 15 15 15 15 15 15 15 14 15 13 12 4 7 4 3 11 13 16 14 10 12 14 16 16 20 22 24 22 25 25 25 23 27 25 15 20 24 23 21 20
17 17 16 16 16 15 15 15 16 16 15 14 13 12 11 9 6 9 6 11 12 14 11 11 12 13 15 15 17 19 18 20 22 25 23 25 22 26 23 14 20 20 19 25 17
17 17 17 17 17 16 15 13 14 14 14 12 11 9 9 8 3 3 3 6 9 10 11 11 11 14 13 18 17 19 17 17 17 23 23 24 22 23 18 18 22 7 6 21 23
17 16 18 17 17 16 15 14 12 14 13 8 7 8 15 7 4 5 7 8 6 9 11 12 10 11 14 16 17 17 18 16 21 19 21 19 25 25 21 22 20 11 8 12 21
18 17 17 17 17 17 15 14 14 13 10 8 7 10 6 2 7 8 6 10 6 6 10 14 9 12 15 18 20 20 16 17 19 19 20 25 25 24 21 21 24 19 14 15 14
20 19 18 18 16 17 15 13 15 12 10 9 8 9 1 5 6 6 7 8 8 5 5 9 7 14 15 16 15 16 16 20 21 19 20 27 27 26 23 22 22 19 13 15 10
22 21 19 18 17 16 14 12 8 8 9 11 11 10 10 7 11 8 5 4 9 6 8 10 10 13 14 13 15 13 15 18 20 17 22 28 28 25 25 26 24 23 18 15 14
24 22 20 17 17 14 12 6 4 7 10 13 8 6 8 9 5 4 2 7 9 10 12 13 10 12 14 12 20 21 14 21 20 23 22 26 26 27 24 24 24 24 20 17 17
25 24 21 18 15 12 8 7 12 9 12 9 5 11 5 4 14 5 2 7 11 13 13 8 11 15 10 7 23 16 11 24 21 10 14 20 28 29 26 25 24 24 17 17 17
25 24 21 18 13 8 13 15 8 9 7 8 7 6 5 6 11 8 7 9 14 15 16 15 14 8 12 11 13 17 19 17 18 14 19 26 21 25 29 25 20 27 21 22 18
26 24 20 17 5 11 13 11 10 4 5 8 11 5 8 2 4 6 9 12 13 18 18 14 14 14 10 17 8 14 17 20 17 4 7 16 12 20 24 22 21 18 18 20 20
27 25 18 5 11 9 11 9 9 3 2 8 4 1 10 6 8 2 6 8 13 15 16 18 12 16 16 17 8 14 12 17 18 12 15 17 17 17 21 27 24 22 19 21 24
27 24 18 4 8 11 12 6 6 7 5 9 19 17 15 9 10 7 6 9 16 18 16 19 21 17 17 3 10 10 10 20 12 14 15 21 20 19 20 25 25 23 22 23 21
31 21 10 8 8 12 10 9 7 2 17 13 23 20 19 8 12 9 11 13 6 6 14 14 17 21 21 18 13 12 8 10 11 12 14 23 20 18 26 31 27 25 24 18 20
34 23 10 10 10 9 8 10 9 16 15 19 19 22 12 5 13 16 13 20 15 10 4 12 12 11 13 19 15 14 14 11 9 4 11 22 20 19 13 29 28 27 23 21 21
31 6 6 2 8 6 9 7 6 12 14 16 19 13 16 18 15 14 17 13 14 8 7 11 3 16 14 12 11 13 18 3 4 18 17 15 22 19 13 13 26 26 25 25 24
10 10 2 9 6 5 9 8 13 10 12 14 15 14 21 19 18 19 12 8 18 12 16 10 16 11 7 9 13 16 2 9 9 6 9 10 17 12 14 14 18 26 28 26 25
4 6 4 11 6 8 7 10 15 12 11 11 19 17 19 17 18 21 7 14 4 12 13 10 9 11 7 13 11 10 16 14 14 12 14 10 8 10 15 10 8 23 25 25 25
9 6 6 9 4 7 9 17 14 11 12 13 12 13 17 19 20 14 8 7 10 9 6 5 6 10 14 18 13 16 16 14 10 16 13 11 16 15 7 15 11 13 23 25 22
9 12 4 7 9 8 14 15 11 14 13 15 12 15 19 17 9 8 9 7 8 4 5 4 7 9 10 10 11 16 15 15 14 13 20 17 13 10 16 7 14 13 17 23 23
7 7 9 11 11 14 16 15 18 12 12 14 17 15 16 18 18 12 19 2 8 12 14 6 7 13 11 6 6 9 15 15 17 14 18 23 22 15 13 16 22 20 12 24 18
5 7 9 9 12 16 20 16 20 19 16 17 17 15 18 19 19 8 17 5 7 7 7 5 7 16 21 21 18 14 21 22 18 21 21 28 23 14 12 13 17 21 22 19 31
6 7 8 16 15 20 15 16 20 19 20 16 14 19 19 20 16 24 19 2 5 7 9 5 5 9 20 21 21 23 16 27 23 30 29 32 26 3 9 13 15 20 25 13 28
7 10 7 9 14 14 14 20 23 23 13 19 18 18 18 19 21 18 18 12 10 8 10 6 5 5 12 13 18 13 26 28 28 29 30 28 23 11 9 12 15 20 23 19 29
Wind_Direction
344 340 337 335 330 329 326 326 325 322 318 318 317 318 321 320 308 285 241 17 340 346 326 284 264 257 230 256 242 242 246 245 248 251 253 265 267 225 241 250 258 269 72 106 118
342 338 334 330 327 325 323 322 321 317 314 311 309 310 314 318 305 283 94 61 4 345 293 289 292 245 243 237 237 234 239 241 255 260 267 266 265 270 214 203 242 258 104 115 135
340 336 332 328 325 323 321 322 318 316 311 308 308 309 308 307 286 84 153 10 295 282 273 280 290 284 276 254 239 236 245 256 249 260 275 277 271 270 254 201 225 239 133 139 151
338 333 329 324 321 320 320 319 317 315 313 309 305 300 302 286 7 95 168 246 274 270 272 269 265 263 262 263 249 249 244 247 260 275 278 278 284 281 271 207 226 240 153 153 164
338 334 326 320 318 316 316 316 313 315 314 309 299 295 289 228 56 140 188 230 265 275 263 285 279 283 268 269 267 258 249 261 253 256 270 274 282 279 288 204 251 242 233 154 163
334 331 326 320 315 315 314 311 307 312 310 304 289 297 259 281 40 89 272 271 247 286 281 274 284 306 311 290 285 284 281 270 260 265 250 264 269 273 271 283 229 176 276 164 163
335 332 329 320 314 311 310 306 305 308 304 299 288 278 280 34 321 280 265 276 293 298 288 277 265 287 298 283 259 267 275 272 267 255 256 256 254 264 248 265 274 187 196 241 165
336 331 328 321 313 308 306 306 303 295 284 283 290 279 287 81 331 254 319 297 216 286 277 284 314 286 279 283 283 277 267 253 249 231 243 253 240 242 249 257 263 234 181 237 202
338 335 327 320 310 303 304 302 294 277 266 268 258 230 304 147 241 341 266 320 328 271 269 274 296 274 274 258 255 254 252 248 243 242 237 232 239 241 231 240 251 253 206 216 204
339 335 330 320 309 301 302 284 305 259 228 230 250 268 242 340 337 328 266 289 289 288 250 219 238 250 242 241 254 261 310 269 253 242 224 231 234 235 237 222 235 244 220 205 207
339 336 332 322 309 311 311 220 247 203 227 275 318 328 327 353 304 247 256 282 253 238 268 203 280 275 282 316 310 299 277 281 286 271 234 228 225 234 235 237 215 231 208 197 187
338 336 333 324 314 311 279 304 355 295 302 276 259 260 217 254 287 342 149 276 272 274 296 248 248 286 294 149 253 289 276 274 253 277 309 271 220 219 224 235 218 219 210 199 206
336 336 333 325 317 274 242 9 338 331 274 198 222 283 316 314 300 298 240 274 281 280 280 281 276 258 269 273 281 275 271 273 290 9 317 292 246 207 220 229 238 197 211 212 197
335 334 333 328 291 308 3 346 342 34 284 176 198 158 297 322 290 270 281 315 287 276 279 289 294 267 238 269 244 266 280 285 268 286 262 278 239 240 207 223 229 228 206 187 208
335 330 328 321 314 332 342 8 339 235 317 22 33 17 297 221 294 91 320 284 284 294 297 276 299 281 235 239 245 262 284 293 282 262 261 256 260 236 211 213 213 220 209 204 197
334 329 329 237 214 312 338 344 247 237 7 341 4 344 320 13 337 330 269 244 282 286 257 260 271 257 279 243 286 249 284 284 253 264 252 256 235 227 206 208 213 204 222 201 181
329 324 300 311 323 333 334 288 259 350 351 8 338 334 310 344 330 321 304 301 268 297 268 293 244 250 239 256 244 234 236 265 228 223 238 244 243 248 209 198 202 205 207 205 187
324 315 229 254 330 338 299 268 285 357 336 339 332 312 355 3 337 320 340 313 312 225 291 276 326 272 241 228 244 270 224 243 267 239 276 239 223 237 219 188 198 194 201 196 210
315 223 252 351 321 332 292 333 9 340 332 331 324 336 334 340 333 323 327 353 5 327 253 322 264 311 217 239 242 220 243 192 213 270 265 268 218 234 227 234 188 189 193 191 207
317 286 76 327 344 296 285 317 344 359 339 336 328 329 323 331 341 332 323 357 340 345 355 299 304 305 38 310 231 254 291 245 207 259 234 241 209 204 204 211 184 188 185 181 206
248 282 81 345 298 276 316 344 331 343 345 315 318 317 313 330 333 321 300 311 339 326 321 310 264 285 327 238 257 222 225 235 265 280 297 323 238 187 170 221 217 182 181 173 203
299 331 61 337 346 342 343 335 306 313 313 319 310 312 319 323 319 322 297 231 269 320 291 232 287 271 262 241 285 204 263 243 252 277 270 287 278 305 316 195 232 213 172 174 206
306 303 87 327 343 341 335 326 332 323 325 333 320 321 306 308 309 290 285 273 292 237 270 337 244 271 254 216 215 258 210 247 269 276 274 282 272 288 352 210 205 226 183 176 202
287 319 341 322 9 347 327 316 323 338 342 327 314 301 311 328 317 308 300 293 241 246 234 262 260 260 269 288 309 282 263 247 232 247 259 255 267 279 316 354 345 335 295 180 130
341 350 3 315 327 319 306 317 326 331 335 317 318 314 324 315 321 292 310 333 249 237 223 222 263 262 268 272 277 233 248 250 256 260 242 261 254 263 306 322 321 325 314 289 126
360 331 328 298 312 302 326 344 324 318 322 322 315 312 313 304 326 326 318 321 254 173 185 195 266 257 265 269 278 275 266 248 232 245 252 251 257 311 323 310 310 328 326 152 132
346 333 287 290 314 321 338 317 321 323 319 309 307 300 305 325 321 308 286 278 239 242 202 212 226 224 252 254 274 255 244 229 235 235 232 243 246 244 276 295 306 304 318 258 138